Location: Biltmore Gardens
(41.6070°N, 83.4666°W)
Time: 19:36:41
(UTC+00:00)

Tiros 1 despin weight - All Passes

Search period start: 19 April 2021 00:00
Search period end: 29 April 2021 00:00
Orbit: 593 x 641 km, 48.2° (Epoch: 18 April)

Date Brightness Start Highest point End Pass type
(mag) Time Alt. Az. Time Alt. Az. Time Alt. Az.
19 Apr - 09:58:56 10° SSW 10:02:54 29° SE 10:06:50 10° E visible
19 Apr - 11:39:37 10° WSW 11:44:13 70° NNW 11:48:44 10° ENE daylight
19 Apr - 13:22:02 10° WNW 13:26:14 36° N 13:30:23 10° ENE daylight
19 Apr - 15:04:06 10° WNW 15:08:27 45° NNE 15:12:43 10° E daylight
19 Apr - 16:45:43 10° WNW 16:50:07 59° SSW 16:54:27 10° SE daylight
19 Apr - 18:29:43 10° WSW 18:30:54 11° SW 18:32:06 10° SSW daylight
20 Apr - 10:14:33 10° SW 10:19:03 52° SE 10:23:29 10° ENE visible
20 Apr - 11:56:13 10° W 12:00:40 49° NNW 12:05:04 10° ENE daylight
20 Apr - 13:38:40 10° WNW 13:42:52 35° N 13:46:59 10° ENE daylight
20 Apr - 15:20:27 10° WNW 15:24:55 63° NNE 15:29:20 10° ESE daylight
20 Apr - 17:02:18 10° WNW 17:06:16 32° SW 17:10:12 10° SSE daylight
21 Apr - 08:50:49 10° S 08:54:12 20° SE 08:57:33 10° E visible
21 Apr - 10:30:41 10° WSW 10:35:19 89° SE 10:39:53 10° ENE daylight
21 Apr - 12:12:55 10° W 12:17:13 39° N 12:21:28 10° ENE daylight
21 Apr - 13:55:10 10° WNW 13:59:27 39° N 14:03:40 10° E daylight
21 Apr - 15:36:48 10° WNW 15:41:18 82° SSW 15:45:43 10° ESE daylight
21 Apr - 17:19:25 10° W 17:22:17 17° SW 17:25:09 10° S daylight
22 Apr - 09:06:00 10° SSW 09:10:16 37° SE 09:14:29 10° ENE visible
22 Apr - 10:47:08 10° WSW 10:51:42 60° NNW 10:56:13 10° ENE daylight
22 Apr - 12:29:36 10° WNW 12:33:49 35° N 12:37:58 10° ENE daylight
22 Apr - 14:11:34 10° WNW 14:15:59 51° NNE 14:20:21 10° E daylight
22 Apr - 15:53:14 10° WNW 15:57:32 46° SW 16:01:46 10° SE daylight
23 Apr - 07:43:13 10° SSE 07:45:32 14° SE 07:47:50 10° ESE visible
23 Apr - 09:21:51 10° SW 09:26:27 66° SSE 09:31:00 10° ENE visible
23 Apr - 11:03:47 10° W 11:08:12 44° NNW 11:12:34 10° ENE daylight
23 Apr - 12:46:11 10° WNW 12:50:26 36° N 12:54:37 10° ENE daylight
23 Apr - 14:27:54 10° WNW 14:32:25 76° NNE 14:36:53 10° ESE daylight
23 Apr - 16:09:58 10° W 16:13:38 25° SW 16:17:15 10° SSE daylight
24 Apr - 07:57:40 10° SSW 08:01:31 26° SE 08:05:21 10° E visible
24 Apr - 09:38:08 10° WSW 09:42:46 76° NNW 09:47:22 10° ENE visible
24 Apr - 11:20:30 10° WNW 11:24:46 37° N 11:29:00 10° ENE daylight
24 Apr - 13:02:38 10° WNW 13:07:00 43° NNE 13:11:18 10° E daylight
24 Apr - 14:44:16 10° WNW 14:48:45 66° SSW 14:53:09 10° SE daylight
24 Apr - 16:27:36 10° WSW 16:29:36 13° SW 16:31:36 10° SSW daylight
25 Apr - 08:13:10 10° SW 08:17:38 47° SE 08:22:04 10° ENE visible
25 Apr - 09:54:41 10° W 09:59:13 52° NNW 10:03:41 10° ENE visible
25 Apr - 11:37:09 10° WNW 11:41:24 35° N 11:45:34 10° ENE daylight
25 Apr - 13:19:00 10° WNW 13:23:31 59° NNE 13:27:56 10° ESE daylight
25 Apr - 15:00:47 10° WNW 15:04:56 36° SW 15:09:00 10° SSE daylight
26 Apr - 06:49:40 10° S 06:52:49 18° SE 06:55:58 10° E visible
26 Apr - 08:29:13 10° WSW 08:33:53 82° SSE 08:38:30 10° ENE visible
26 Apr - 10:11:22 10° W 10:15:44 40° NNW 10:20:04 10° ENE daylight
26 Apr - 11:53:41 10° WNW 11:57:59 39° N 12:02:14 10° E daylight
26 Apr - 13:35:20 10° WNW 13:39:54 89° SW 13:44:23 10° ESE daylight
26 Apr - 15:17:45 10° W 15:20:58 19° SW 15:24:09 10° S daylight
27 Apr - 07:04:40 10° SSW 07:08:51 33° SE 07:13:01 10° ENE visible
27 Apr - 08:45:37 10° WSW 08:50:15 65° NNW 08:54:50 10° ENE visible
27 Apr - 10:28:03 10° WNW 10:32:20 36° N 10:36:34 10° ENE daylight
27 Apr - 12:10:05 10° WNW 12:14:33 48° NNE 12:18:55 10° E daylight
27 Apr - 13:51:45 10° WNW 13:56:10 52° SW 14:00:29 10° SE daylight
28 Apr - 05:42:22 10° SSE 05:44:09 12° SE 05:45:57 10° ESE visible
28 Apr - 07:20:25 10° SW 07:25:01 60° SSE 07:29:35 10° ENE visible
28 Apr - 09:02:13 10° W 09:06:43 46° NNW 09:11:10 10° ENE visible
28 Apr - 10:44:40 10° WNW 10:48:56 36° N 10:53:10 10° ENE daylight
28 Apr - 12:26:25 10° WNW 12:30:59 70° NNE 12:35:29 10° ESE daylight
28 Apr - 14:08:24 10° W 14:12:17 28° SW 14:16:06 10° SSE daylight
